This is the latest recevied weather packets stored in our database for station/object HS6PNA-2. If no packets are shown the sender has not sent any weather packets the latest 10 day(s).
| Time | Temp. | Humidity | Pressure | Rain* | Wind** | Luminosity | Snow |
|---|---|---|---|---|---|---|---|
| 1777814034 | 29.44° C | 35% | 1002 hPa | - | - | 0 W/m² | - |
| 1777813109 | 28.89° C | 35% | 1001 hPa | - | - | 0 W/m² | - |
| 1777812185 | 28.89° C | 33% | 1001 hPa | - | - | 0 W/m² | - |
| 1777811260 | 29.44° C | 33% | 1001 hPa | - | - | 0 W/m² | - |
| 1777810336 | 29.44° C | 31% | 1000 hPa | - | - | 0 W/m² | - |
| 1777809411 | 30° C | 30% | 1000 hPa | - | - | 0 W/m² | - |
| 1777808487 | 28.89° C | 31% | 1000 hPa | - | - | 0 W/m² | - |
| 1777807562 | 30° C | 31% | 1000 hPa | - | - | 0 W/m² | - |
| 1777806638 | 29.44° C | 31% | 1000 hPa | - | - | 0 W/m² | - |
| 1777805713 | 30.56° C | 26% | 999 hPa | - | - | 0 W/m² | - |
| 1777804789 | 31.11° C | 26% | 999 hPa | - | - | 0 W/m² | - |
| 1777803864 | 31.11° C | 27% | 999 hPa | - | - | 0 W/m² | - |
| 1777802940 | 33.33° C | 27% | 999 hPa | - | - | 0 W/m² | - |
| 1777802015 | 33.89° C | 25% | 999 hPa | - | - | 0 W/m² | - |
| 1777801091 | 33.89° C | 26% | 999 hPa | - | - | 0 W/m² | - |
| 1777800166 | 33.89° C | 26% | 999 hPa | - | - | 0 W/m² | - |
| 1777799242 | 33.33° C | 25% | 999 hPa | - | - | 0 W/m² | - |
| 1777798318 | 33.33° C | 25% | 999 hPa | - | - | 0 W/m² | - |
| 1777797392 | 33.33° C | 25% | 1000 hPa | - | - | 0 W/m² | - |
| 1777796467 | 33.33° C | 26% | 1000 hPa | - | - | 0 W/m² | - |
| 1777795543 | 33.33° C | 26% | 1000 hPa | - | - | 0 W/m² | - |
| 1777794618 | 32.78° C | 27% | 1000 hPa | - | - | 0 W/m² | - |
| 1777793694 | 32.78° C | 28% | 1000 hPa | - | - | 0 W/m² | - |
| 1777792770 | 32.78° C | 30% | 1001 hPa | - | - | 0 W/m² | - |
| 1777791845 | 32.78° C | 27% | 1001 hPa | - | - | 0 W/m² | - |
* Rain since midnight (hover to see other rain measurements)
** Current wind speed in m/s (hover to see current wind gust speed)